TimeMST,TemperatureF,Dew PointF,Humidity,Sea Level PressureIn,VisibilityMPH,Wind Direction,Wind SpeedMPH,Gust SpeedMPH,PrecipitationIn,Events,Conditions,WindDirDegrees,DateUTC
12:15 AM,37.4,35.6,93,30.18,10.0,NW,6.9,-,N/A,,Clear,320,2012-11-20 07:15:00
12:55 AM,37.4,35.6,93,30.18,10.0,NW,5.8,-,N/A,,Scattered Clouds,320,2012-11-20 07:55:00
1:15 AM,35.6,33.8,93,30.18,10.0,NNW,4.6,-,N/A,,Mostly Cloudy,340,2012-11-20 08:15:00
1:35 AM,35.6,33.8,93,30.17,10.0,NNW,5.8,-,N/A,,Mostly Cloudy,330,2012-11-20 08:35:00
5:15 AM,37.4,35.6,93,30.18,7.0,NW,6.9,-,N/A,Rain,Rain,310,2012-11-20 12:15:00
5:35 AM,37.4,35.6,93,30.18,10.0,NW,6.9,-,N/A,Rain,Rain,310,2012-11-20 12:35:00
6:47 AM,37.4,37.4,100,30.17,5.0,NW,5.8,-,N/A,Rain,Light Rain,310,2012-11-20 13:47:00
7:47 AM,37.4,37.4,100,30.17,7.0,WNW,6.9,-,N/A,Rain,Light Rain,290,2012-11-20 14:47:00
8:47 AM,39.2,39.2,100,30.17,5.0,Calm,Calm,-,N/A,Rain,Light Rain,0,2012-11-20 15:47:00
9:48 AM,39.2,39.2,100,30.16,7.0,WNW,6.9,-,N/A,Rain,Light Rain,300,2012-11-20 16:48:00
10:47 AM,39.2,39.2,100,30.16,7.0,WNW,5.8,-,N/A,Rain,Light Rain,290,2012-11-20 17:47:00
11:50 AM,46.4,39.2,76,30.15,7.0,WNW,4.6,-,N/A,Rain,Light Rain,290,2012-11-20 18:50:00
12:47 PM,39.2,39.2,100,30.11,7.0,NW,8.1,-,N/A,Rain,Light Rain,310,2012-11-20 19:47:00
1:55 PM,41.0,39.2,93,30.09,7.0,WNW,4.6,-,N/A,,Light Drizzle,290,2012-11-20 20:55:00
2:47 PM,41.0,39.2,93,30.07,7.0,West,8.1,-,N/A,Rain,Light Rain,280,2012-11-20 21:47:00
3:55 PM,39.2,39.2,100,30.08,7.0,WNW,9.2,-,N/A,Rain,Light Rain,300,2012-11-20 22:55:00
4:50 PM,39.2,39.2,100,30.06,7.0,WNW,6.9,-,N/A,Rain,Light Rain,290,2012-11-20 23:50:00
5:47 PM,39.2,37.4,93,30.04,10.0,WNW,10.4,-,N/A,,Mostly Cloudy,300,2012-11-21 00:47:00
6:47 PM,37.4,37.4,100,30.04,10.0,WNW,8.1,-,N/A,,Mostly Cloudy,290,2012-11-21 01:47:00
7:47 PM,37.4,37.4,100,30.02,10.0,West,8.1,-,N/A,,Overcast,280,2012-11-21 02:47:00
8:47 PM,39.2,37.4,93,30.02,10.0,West,9.2,-,N/A,,Overcast,280,2012-11-21 03:47:00
9:47 PM,39.2,37.4,93,30.01,10.0,WNW,8.1,-,N/A,Rain,Light Rain,290,2012-11-21 04:47:00
10:15 PM,39.2,37.4,93,30.00,10.0,WNW,9.2,-,N/A,,Overcast,300,2012-11-21 05:15:00
10:35 PM,39.2,37.4,93,29.99,10.0,NNW,8.1,-,N/A,,Mostly Cloudy,330,2012-11-21 05:35:00
10:47 PM,39.2,37.4,93,29.99,10.0,WNW,6.9,-,N/A,,Mostly Cloudy,290,2012-11-21 05:47:00
10:55 PM,39.2,37.4,93,29.99,10.0,NW,8.1,-,N/A,,Mostly Cloudy,310,2012-11-21 05:55:00
11:15 PM,39.2,37.4,93,29.98,10.0,NW,5.8,-,N/A,,Overcast,310,2012-11-21 06:15:00
11:35 PM,39.2,37.4,93,29.97,10.0,NW,8.1,-,N/A,,Overcast,320,2012-11-21 06:35:00
11:55 PM,37.4,37.4,100,29.97,10.0,WNW,6.9,-,N/A,,Overcast,300,2012-11-21 06:55:00